Location: CNYAC Observatory
(43.2150°N, 74.9500°W)
Time: 14:41:05
(UTC-04:00)

Daily predictions for brighter satellites

Satellite Brightness Start Highest point End
(mag) Time Altitude Azimuth Time Altitude Azimuth Time Altitude Azimuth
Cosmos 1603 4.5 19:02:28 10° SSE 19:07:23 30° ESE 19:12:21 10° NE
Meteor 1-24 Rocket 3.7 19:02:04 10° N 19:07:43 83° E 19:13:08 10° SSE
SAR-Lupe-1 4.4 19:07:19 10° SE 19:10:42 45° ENE 19:14:08 10° N
Cosmos-2242 4.0 19:07:30 10° SE 19:11:10 27° E 19:14:51 10° NNE
Cosmos 1437 3.6 19:08:25 10° NNW 19:11:39 57° W 19:14:51 10° S
Cosmos 1452 Rocket 3.6 19:09:19 10° NNW 19:14:31 56° ENE 19:19:39 10° SE
OAO 3 Rocket 4.4 19:10:28 10° WSW 19:14:36 31° S 19:18:48 10° ESE
MSX 4.3 19:10:30 10° S 19:16:13 71° WSW 19:21:59 10° NNW
Cosmos 2034 Rocket 4.3 19:13:25 10° SSE 19:19:20 46° E 19:25:20 10° NNE
Cosmos 1464 Rocket 4.0 19:13:39 10° S 19:19:46 62° E 19:25:52 10° NNE
In-Cosmos 22 4.4 19:14:42 10° N 19:20:24 56° ENE 19:26:01 10° SSE
Cosmos 1470 4.4 19:19:23 10° ESE 19:21:29 14° E 19:23:35 10° NE
DMSP B5D1-3 4.5 19:16:53 10° NNE 19:22:00 79° ESE 19:27:06 10° S
Cosmos 2333 Rocket 4.1 19:18:57 10° WSW 19:24:05 32° NW 19:29:14 10° N
Spot 1 4.5 19:21:00 10° SE 19:25:28 47° ENE 19:29:42 10° N
CZ-4C R/B 3.8 19:23:02 10° WSW 19:28:02 35° NW 19:33:41 10° NNE
Cosmos 1674 4.0 19:25:15 10° NNE 19:28:14 21° ENE 19:31:13 10° ESE
CENTAUR R/B 3.4 19:25:58 10° SSE 19:30:43 24° ESE 19:35:52 10° ENE
SKYMED 2 4.2 19:27:23 10° N 19:31:41 61° WNW 19:35:57 10° SSW
ATLAS CENTAUR R/B 3.6 19:27:33 10° SW 19:32:31 77° SE 19:48:42 10° NE
Cosmos 1408 Rocket 3.4 19:28:32 10° N 19:32:54 73° E 19:37:12 10° SSE
SJ-6B 2.8 19:29:18 10° SSE 19:33:18 85° ENE 19:37:25 10° NNW
Cosmos 1420 Rocket 4.3 19:29:31 10° N 19:34:40 48° ENE 19:39:48 10° SE
Cosmos 724 4.3 19:30:55 10° SSW 19:36:45 63° ESE 19:42:46 10° NE
ATLAS 5 CENTAUR R/B 1.8 19:32:54 10° SW 19:37:41 89° SE 19:42:55 10° NE
FengYun 1-2 T 4.4 19:35:36 10° SE 19:40:52 49° ENE 19:46:07 10° N
NOSS 3-2 (C) 3.6 19:35:10 10° SW 19:41:16 83° NW 19:48:00 10° NE
Cosmos 2237 Rocket 4.3 19:37:28 10° WSW 19:42:17 28° NW 19:47:07 10° N
ALOS 2.8 19:42:38 10° SE 19:46:56 37° ENE 19:51:14 10° N
Cosmos 1758 3.3 19:43:37 10° S 19:47:41 77° E 19:51:49 10° N
Helios 1A 3.0 19:46:52 10° SSE 19:51:02 64° ENE 19:55:13 10° N
Spot 2 Rocket 3.4 19:46:19 10° SSE 19:51:20 76° ENE 19:56:23 10° N
ISS -2.7 19:50:37 10° SSW 19:53:37 37° SE 19:54:41 28° E
Cosmos 1048 Rocket 4.2 19:49:41 10° S 19:54:46 49° ESE 19:59:49 10° NNE
Cosmos 1544 3.0 19:53:34 10° S 19:57:16 66° E 20:01:00 10° NNE
Cosmos 1269 Rocket 4.0 19:52:31 10° S 19:57:42 61° ESE 20:02:55 10° NNE
METEOR-M 4.2 19:54:21 10° SSE 19:59:42 83° WSW 20:05:05 10° NNW
Resurs 1-3 3.5 19:56:17 10° SSE 20:00:39 71° ENE 20:05:02 10° N
Meteor 1-21 Rocket 4.2 19:55:31 10° N 20:01:06 90° NNW 20:06:39 10° S
SL-8 R/B 3.7 19:56:47 10° SW 20:01:29 61° SSE 20:04:21 23° ENE
Cosmos 1743 Rocket 3.5 19:58:26 10° N 20:02:54 74° E 20:07:17 10° SSE
SL-16 R/B 3.7 19:58:25 10° SW 20:03:43 39° WNW 20:09:04 10° NNE
Resurs 01 Rocket 1.7 20:01:52 10° S 20:06:18 78° WSW 20:10:46 10° NNW
HJ-1C 4.0 20:06:48 10° S 20:10:06 58° W 20:13:27 10° NNW
USA 215 3.2 20:06:35 10° NE 20:13:05 64° SE 20:19:33 10° SW
Cosmos 158 Rocket 4.1 20:08:56 10° S 20:13:30 41° ESE 20:18:04 10° NE
FENGYUN 3A 3.6 20:10:26 10° SSE 20:15:46 71° ENE 20:21:10 10° N
CZ-2D R/B 3.3 20:15:36 33° SE 20:17:06 58° ENE 20:20:57 10° N
Helios 1B rocket 2.9 20:19:01 10° N 20:23:06 63° WNW 20:27:10 10° SSW
Nadezhda 4 Rocket 4.1 20:17:19 10° N 20:23:37 78° W 20:29:48 10° S
Abrixas 2.5 20:24:11 10° WSW 20:26:59 74° W 20:26:59 74° W
H-2A R/B 2.6 20:28:08 42° SSE 20:29:23 80° ENE 20:33:16 10° N
GP-B 3.1 20:25:28 10° N 20:29:51 54° E 20:30:36 48° SE
Cosmos 1092 Rocket 3.9 20:26:23 10° N 20:32:38 90° NNE 20:38:46 10° S
CZ-4B DEB 3.1 20:31:57 46° SSW 20:32:43 66° W 20:36:00 10° NNW
CZ-4B DEB 4.4 20:34:21 74° NE 20:34:21 74° NE 20:37:51 10° N
ERS-1 Rocket 3.6 20:35:35 35° ENE 20:35:35 35° ENE 20:39:54 10° N
GPS 2-04 Rocket1 4.3 20:34:49 10° SW 20:36:40 20° SSW 20:36:40 20° SSW
Gbstr 26 Del rocket 3.3 20:34:18 10° SW 20:38:47 64° SE 20:39:49 51° E
Cosmos 1655 Rocket 4.1 20:32:43 10° N 20:38:48 52° ENE 20:40:33 41° SE
Cosmos 1943 Rocket 2.6 20:33:52 10° NNW 20:39:09 40° ENE 20:39:37 39° ENE
Meteor 1-29 4.4 20:37:31 10° N 20:40:50 39° WNW 20:44:05 10° SW
Cosmos 2142 Rocket 4.4 20:35:13 10° S 20:41:33 73° E 20:47:57 10° NNE
Cosmos 2369 Rocket 2.1 20:37:16 10° NNW 20:42:57 89° WSW 20:45:20 37° SSE
H-2A R/B 4.3 20:46:02 14° NNE 20:46:02 14° NNE 20:47:06 10° NNE
Cosmos 2026 Rocket 3.9 20:38:44 10° N 20:44:48 64° E 20:46:56 41° SE
Cosmos 1943 3.0 20:39:15 10° SSW 20:44:52 82° ESE 20:50:31 10° NNE
Cosmos 1110 Rocket 4.0 20:40:12 10° NNW 20:45:29 62° ENE 20:46:09 57° ESE
Cosmos 2058 3.8 20:45:11 10° N 20:47:53 37° NNE 20:47:53 37° NNE
Cosmos 1634 Rocket 3.9 20:43:11 10° S 20:49:26 87° E 20:55:40 10° N
Cosmos 2151 2.9 20:47:55 10° N 20:52:06 86° WNW 20:52:06 86° WNW
Cosmos 2263 4.1 20:46:36 10° NNW 20:52:26 80° ENE 20:53:43 56° SE
Cosmos 1733 4.0 20:51:27 10° SSW 20:55:14 51° WNW 20:59:02 10° N
Cosmos 1470 4.0 20:53:33 10° SSW 20:57:13 40° WNW 21:00:54 10° N
Cosmos 839 Rocket 4.3 20:53:46 10° NW 21:01:25 78° WSW 21:03:47 43° SSE
ASTEX 1 4.4 20:58:54 10° N 21:03:34 45° WNW 21:08:13 10° SSW
Meteor 2-20 4.4 21:06:41 10° N 21:12:34 66° ENE 21:12:34 66° ENE
Meteor 2-1 Rocket 4.2 21:16:32 81° NE 21:16:32 81° NE 21:22:13 10° NNE
Cosmos 1331 Rocket 4.0 21:12:19 10° NNW 21:17:26 78° WNW 21:17:26 78° WNW
CENTAUR R/B 2.9 21:14:35 10° SW 21:20:40 65° NW 21:27:36 10° NNE
ATLAS 5 CENTAUR R/B 4.3 21:19:32 10° WNW 21:23:11 20° NNW 21:27:04 10° NNE
ALOS 4.4 21:20:45 10° SSW 21:24:28 23° W 21:28:13 10° NW
Meteor 1-16 Rocket 4.5 21:22:42 36° SW 21:24:42 61° WNW 21:29:59 10° N
ISS 0.0 21:27:06 10° W 21:27:24 12° W 21:27:24 12° W
Envisat 3.9 21:42:35 44° NW 21:42:35 44° NW 21:46:11 10° NNW
USA 215 4.0 21:53:08 30° NNE 21:55:57 47° NNW 22:02:07 10° W
H-2A R/B 4.5 22:01:01 13° N 22:01:01 13° N 22:01:40 10° N
Cosmos 1943 Rocket 4.0 22:17:53 10° NW 22:21:10 27° WNW 22:21:10 27° WNW
CZ-3A R/B 4.4 22:02:36 10° SW 22:27:53 71° SSW 22:27:53 71° SSW
